SYRACUSE 3A

Last updated on Sun Jun 21 2026 00:03:03 GMT+0000 (Coordinated Universal Time)

1 28885U 05041B 26170.96159780 .00000122 00000+0 00000+0 0 9995 2 28885 4.6490 75.8044 0002929 5.3723 219.8458 1.00269106 75774
UTC large
Height (km)
Speed (km/s)
/
Latitude / Longitude
Inclination (degrees)
Orbital Period (minutes)
Azimuth
Elevation
Range (km)
Doppler Factor

Next 0 passes for location: London (51.5072 / 0.1276)

No passes found over London.
SYRACUSE 3A